Tracking 19245 objects as of 18-Aug-2018
HD Live streaming from Space Station
objects crossing your sky now

BRAZILSAT 1

Track BRAZILSAT 1 now!
BRAZILSAT 1 is classified as:


NORAD ID: 15561
Int'l Code: 1985-015B
Perigee: 35,973.2 km
Apogee: 36,024.7 km
Inclination: 15.3 °
Period: 1,446.6 minutes
Semi major axis: 42369 km
RCS: 2.7147 m2 (large)
Launch date: February 8, 1985
Source: Brazil (BRAZ)
Launch site: FRENCH GUIANA (FRGUI)
aabbcc
Your satellite tracking list
Your tracking list is empty




NASA's NSSDC Master Catalog

Two Line Element Set (TLE):
1 15561U 85015B   18228.43313132  .00000043  00000-0  00000+0 0  9994
2 15561  15.3120   8.8188 0006075 282.4856 254.9646  0.99544107 98112
Source of the keplerian elements: AFSPC